SCP
0 0 0 0 0 0 0 0 0 0 0 0 0 0 0 -0 -0 -0 -0 -0 0 0 0 0 0 0 0 0 0 0 0 0 0 0 0 0 0 0 0 0 0 0 0 0
0 0 0 0 0 0 0 0 0 0 0 0 0 0 0 0 0 -0 -0 -0 -0 0 0 0 0 0 0 0 0 0 0 0 0 0 0 0 0 0 0 0 0 0 0 0
0 0 0 0 0 0 0 0 0 0 0 0 0 0 0 0 0 0 -0 -0 -0 0 0 0 0 0 0 0 0 0 0 0 0 0 0 0 0 0 0 0 0 0 0 0
0 0 0 0 0 0 0 0 0 0 0 0 0 0 0 0 0 0 -0 -0 -0 0 0 0 0 0 0 0 0 0 0 0 0 0 0 0 0 0 0 0 0 0 0 0
0 0 0 0 0 0 0 0 0 0 0 0 0 0 0 0 -0 0 0 0 0 0 0 0 0 0 0 0 0 0 0 0 0 0 0 0 0 0 0 0 0 0 0 0
0 0 0 0 0 0 0 0 0 0 0 0 0 0 0 0 0 0 0 0 0 0 0 -0 -0 -0 0 0 0 0 0 0 0 0 0 0 0 0 0 0 0 0 0 0
0 0 0 0 0 0 0 0 0 0 0 0 0 0 0 0 0 0 0 0 0 0 -0 -0 -0 -0 -0 -0 0 0 0 0 0 0 0 0 0 0 0 0 0 0 0 0
0 0 0 0 0 0 0 0 0 0 0 0 0 0 0 0 0 0 0 -0 -0 -0 -0 -0 -0 -0 -0 -0 -0 0 0 0 0 0 0 0 0 0 0 0 0 0 0 0
0 0 0 0 0 0 0 0 0 0 0 0 0 0 0 0 0 0 -0 -0 -0 -0 -0 -0 -0 -0 -0 -0 -0 0 0 0 0 0 0 0 0 0 0 0 0 0 0 0
0 0 -0 -0 -0 -0 -0 0 0 0 0 0 0 0 0 0 0 0 -0 -0 -0 -0 -0 -0 -0 -0 -0 -0 0 0 0 0 0 0 0 0 0 0 0 0 0 0 0 0
0 0 0 -0 -0 -0 -0 -0 0 0 0 0 0 0 0 0 0 0 0 -0 -0 -0 0 0 -0 -0 -0 0 0 0 0 0 0 0 0 0 0 0 0 0 0 0 0 0
0 0 0 -0 -0 0 0 -0 0 0 0 0 0 0 0 0 0 0 -0 -0 -0 -0 0 0 0 0 0 0 -0 0 0 0 0 0 0 0 0 0 -0 0 0 0 0 0
0 0 0 0 0 0 0 0 0 0 -0 -0 0 0 0 0 0 0 -0 -0 -0 -0 0 0 0 0 0 0 -0 -0 -0 0 0 0 0 0 0 0 0 0 0 0 0 0
0 0 0 0 0 0 0 0 0 0 0 0 0 0 0 0 0 0 -0 -0 -0 -0 0 0 -0 -0 -0 -0 -0 -0 0 -0 -0 0 0 0 -0 -0 -0 0 0 0 0 0
-0 0 0 0 0 0 0 0 0 0 0 0 0 0 0 0 0 0 0 0 0 0 0 0 -0 -0 -0 -0 -0 0 0 0 -0 0 0 0 -0 -0 -0 0 0 0 0 0
0 0 0 0 -0 -0 0 0 0 0 0 0 0 0 0 0 0 0 0 0 0 0 0 -0 -0 -0 -0 -0 0 0 0 0 0 0 0 -0 -0 -0 -0 0 0 0 0 0
0 0 0 0 -0 -0 -0 0 0 0 0 0 0 0 0 0 0 0 0 0 0 0 0 0 -0 -0 -0 0 0 0 0 0 -0 -0 0 0 -0 -0 0 0 0 0 0 0
0 0 0 0 -0 -0 -0 0 0 0 0 0 0 0 0 0 0 0 0 0 0 0 0 -0 -0 0 0 0 -0 -0 -0 -0 -0 -0 0 0 -0 0 0 0 0 0 0 0
-0 0 0 0 -0 -0 -0 0 0 0 0 0 0 0 0 0 0 0 -0 -0 0 0 0 0 0 0 0 -0 -0 -0 -0 -0 -0 -0 0 0 0 0 0 0 0 0 0 0
0 0 0 0 0 0 0 0 0 0 0 0 0 -0 -0 0 0 0 -0 -0 -0 -0 -0 -0 0 0 0 -0 -0 -0 -0 -0 -0 0 0 0 0 0 0 0 0 0 0 0
0 0 0 0 0 0 0 0 0 0 0 0 -0 -0 -0 -0 -0 0 -0 -0 -0 -0 -0 -0 -0 -0 -0 -0 -0 -0 -0 -0 0 0 0 0 0 0 0 -0 -0 -0 0 0
0 0 0 0 0 0 0 0 0 0 0 -0 -0 -0 -0 -0 -0 -0 -0 0 -0 -0 -0 -0 -0 -0 -0 -0 -0 -0 -0 -0 0 0 0 0 0 0 0 0 0 0 0 0
0 0 0 0 0 0 0 0 0 0 0 -0 -0 -0 -0 -0 -0 -0 -0 0 0 -0 -0 -0 -0 -0 -0 -0 -0 -0 -0 0 0 0 0 0 0 0 0 0 0 0 0 0
0 0 0 0 0 0 0 0 0 0 0 -0 -0 -0 -0 -0 -0 -0 -0 0 0 -0 -0 -0 -0 -0 -0 -0 -0 -0 -0 0 0 0 0 0 0 0 0 0 -0 -0 -0 -0
0 0 0 0 -0 -0 0 0 0 0 0 0 0 -0 -0 0 0 0 0 0 0 -0 -0 -0 -0 -0 -0 -0 -0 -0 -0 0 0 0 0 0 0 0 0 0 0 -0 -0 -0
0 0 0 0 0 0 0 0 0 0 0 0 0 0 0 0 0 0 0 0 -0 -0 -0 -0 -0 -0 -0 -0 -0 -0 -0 0 0 0 0 0 0 0 -0 -0 -0 0 0 0
0 0 0 0 0 0 0 0 0 0 0 0 0 0 0 0 0 0 0 0 0 0 0 0 -0 -0 -0 0 0 0 -0 0 0 0 0 0 0 0 -0 -0 -0 -0 0 0
Wind_Speed
12 12 10 10 9 7 9 9 8 7 8 7 9 7 4 4 3 3 2 2 2 2 2 2 3 3 3 4 5 6 7 9 10 10 10 11 11 11 11 11 11 11 11 10
11 10 9 10 10 9 10 9 10 11 10 5 6 6 6 5 4 4 4 3 3 2 2 2 2 3 3 3 4 5 7 7 7 8 9 9 10 10 10 10 10 10 11 11
6 9 9 7 7 9 8 7 7 8 6 6 5 6 5 6 6 5 4 3 3 2 1 1 2 3 4 4 4 5 6 7 7 8 8 8 9 10 11 10 10 10 10 11
6 6 6 2 2 3 5 3 3 4 4 4 6 5 3 5 6 5 5 4 3 2 1 0 1 2 2 3 4 5 6 6 7 8 8 8 9 10 10 9 9 9 9 10
4 5 7 3 3 4 4 2 3 4 5 6 7 4 3 6 7 5 4 3 3 2 1 1 1 2 3 4 4 5 5 6 7 8 8 9 10 9 8 8 8 8 8 9
5 5 4 3 7 6 3 1 5 5 5 6 7 2 4 7 8 7 5 4 3 2 1 1 1 2 3 3 5 5 5 5 6 7 8 8 8 8 7 7 7 7 7 8
7 6 4 4 7 5 0 2 5 5 6 5 4 4 6 7 7 6 6 5 4 3 1 0 1 2 2 3 4 4 4 5 5 6 7 7 7 6 8 7 8 8 7 6
4 5 4 5 4 2 2 4 5 5 6 6 6 7 7 7 6 6 6 5 4 3 2 1 1 1 1 2 3 4 5 5 5 6 6 6 7 7 8 9 9 8 7 6
4 4 3 3 2 3 3 4 5 5 6 7 8 8 8 7 7 6 6 5 4 3 3 2 0 1 1 1 3 5 6 6 6 6 6 6 7 8 8 7 7 7 7 6
5 5 5 5 4 5 6 6 6 6 6 7 8 8 8 7 6 6 6 5 4 3 3 3 2 1 1 2 4 5 6 6 6 6 6 5 5 6 6 7 7 7 7 7
7 7 7 6 5 7 8 8 8 7 6 7 8 9 8 8 7 6 5 5 4 3 3 3 2 0 1 3 4 5 5 6 6 6 6 6 4 3 4 4 6 8 7 7
7 5 6 7 7 8 9 8 9 9 9 7 7 8 8 8 7 6 6 5 4 4 4 3 2 1 2 3 4 6 6 6 5 5 5 6 6 6 8 6 8 8 9 8
8 7 8 9 8 8 8 9 9 9 9 9 8 7 8 7 7 6 6 6 5 4 4 3 3 2 2 4 4 5 6 6 5 6 6 6 6 7 6 7 10 10 11 12
6 6 8 7 8 9 9 9 9 9 9 8 8 8 7 7 7 6 6 6 5 4 4 4 3 3 3 4 4 5 5 5 6 5 6 6 6 6 6 7 6 5 7 12
6 6 8 9 9 9 9 8 8 8 8 8 7 7 7 7 7 7 6 5 5 4 4 4 4 3 2 4 5 6 5 5 5 5 5 6 6 6 6 7 7 6 6 7
7 8 8 9 10 10 9 9 9 9 8 8 8 7 7 7 7 6 6 5 5 5 5 4 4 3 3 4 5 5 4 7 6 6 6 6 6 7 7 7 7 7 6 6
7 8 8 9 10 10 10 9 9 9 8 9 9 8 7 7 6 6 6 5 4 5 4 4 4 3 3 5 5 5 5 6 8 6 5 6 6 6 7 7 7 6 6 7
6 8 8 9 10 11 10 10 9 9 9 9 9 8 7 7 6 6 5 3 3 3 3 3 3 3 4 4 5 5 5 5 5 6 6 6 6 6 6 7 7 8 6 7
8 9 9 9 10 10 10 10 9 9 9 8 8 8 7 6 6 5 4 4 4 4 3 2 4 3 4 5 5 5 6 7 6 6 6 8 7 6 6 7 7 7 7 6
9 9 10 10 10 9 10 9 9 9 8 8 7 7 6 5 4 4 3 3 3 3 2 3 3 3 4 5 6 5 6 7 7 7 6 6 7 7 7 7 7 7 6 6
10 10 10 10 10 9 9 9 9 9 8 6 6 5 5 4 3 3 2 2 2 2 3 4 3 3 4 5 6 5 6 6 7 7 7 7 7 7 7 7 7 7 7 6
9 9 10 9 9 9 8 8 8 9 7 5 5 4 3 3 2 1 2 2 2 3 3 2 3 5 6 7 5 6 6 7 6 6 7 7 7 7 7 7 7 7 6 6
9 9 9 9 9 9 8 7 6 6 5 5 4 3 3 2 1 1 1 1 2 4 2 2 6 9 8 5 5 6 6 7 7 7 7 7 7 7 7 7 7 7 7 6
9 9 9 8 8 7 7 6 5 4 4 3 3 2 2 1 1 1 0 2 3 4 3 5 8 9 8 5 5 6 6 6 7 7 7 7 6 7 7 7 7 6 7 7
8 8 8 8 7 5 5 5 4 3 2 2 2 1 1 0 0 1 2 3 5 5 4 6 9 9 6 5 6 6 6 6 7 7 7 7 7 7 7 7 7 7 6 6
7 7 6 6 5 4 4 3 3 2 1 1 1 1 1 2 2 2 3 4 5 6 5 4 5 6 5 6 6 6 6 7 7 7 7 7 8 7 7 7 8 6 6 6
7 6 5 4 4 3 3 3 2 2 1 1 1 2 2 2 3 3 4 4 4 5 5 5 5 5 6 6 6 7 6 6 7 7 7 7 7 7 7 8 6 6 6 6
Wind_Direction
282 283 276 262 261 245 232 232 232 256 278 304 321 330 350 1 11 26 46 80 92 112 120 130 144 154 162 172 176 177 180 184 185 182 180 179 180 179 178 178 178 178 177 179
285 283 280 266 255 247 240 242 251 264 273 306 313 339 2 12 28 24 23 34 48 69 97 133 156 162 162 174 180 177 180 182 174 171 173 174 174 172 170 172 172 173 178 179
282 294 291 261 245 231 227 233 247 255 280 337 344 353 358 10 21 20 16 12 13 12 94 160 174 173 175 177 173 174 174 170 166 166 168 168 164 166 170 172 170 174 177 177
278 289 254 238 336 270 225 229 276 276 309 329 315 312 351 13 6 358 355 354 349 344 334 360 132 154 158 155 159 162 160 161 162 162 163 160 160 166 169 168 171 175 176 176
267 275 275 299 333 300 259 222 331 309 316 327 318 307 343 355 356 343 339 336 324 321 324 83 126 135 140 148 151 152 156 162 164 161 159 160 164 165 163 163 166 168 169 169
252 265 270 348 336 317 261 208 354 335 332 341 346 324 310 340 340 340 342 341 338 340 15 82 101 129 134 148 151 158 163 161 157 156 159 161 161 159 154 154 155 154 157 163
242 252 270 340 336 348 78 309 341 353 344 344 337 304 309 324 328 332 332 334 341 346 352 112 100 113 138 150 159 155 148 146 147 149 152 152 147 145 145 144 144 145 146 147
236 245 261 357 2 11 298 312 331 341 338 333 320 314 319 322 326 335 332 329 337 344 341 351 109 117 127 153 142 136 139 139 139 139 138 139 139 141 142 143 143 145 142 139
228 248 300 325 317 310 312 316 323 325 325 324 321 319 319 320 325 329 326 324 329 336 333 334 45 131 138 130 126 127 132 133 131 131 134 140 143 144 143 145 147 150 149 147
270 268 297 306 317 318 317 315 315 319 320 319 314 312 313 312 316 319 320 323 326 327 324 323 329 26 134 136 131 130 134 134 133 135 134 132 135 143 148 152 152 152 152 151
269 281 295 284 305 312 312 313 314 314 312 307 304 303 304 306 304 304 305 306 309 303 293 293 299 84 133 144 138 137 138 137 135 133 131 125 111 110 137 149 161 157 158 154
262 274 276 287 304 309 308 307 309 311 307 301 294 293 293 291 292 294 295 293 292 290 288 291 284 201 166 157 151 148 146 143 140 135 130 126 117 88 66 96 118 129 138 140
267 277 278 283 291 298 298 299 301 300 297 295 291 286 284 283 287 285 287 284 278 274 270 271 261 225 187 163 160 161 158 153 145 141 139 137 134 129 114 83 85 106 125 132
285 292 285 287 292 294 292 292 292 291 290 289 289 287 284 282 282 279 279 279 277 268 259 255 243 231 199 163 160 157 151 149 146 144 142 141 139 137 135 133 124 103 109 128
293 291 287 295 296 295 294 293 291 288 289 288 285 283 281 282 280 279 280 277 273 264 256 246 234 231 187 158 155 151 148 146 142 139 138 139 136 133 131 131 130 128 121 122
298 294 292 293 295 297 296 293 291 290 291 289 287 284 280 279 279 280 279 268 256 253 248 235 227 220 172 153 147 142 141 144 143 140 138 137 136 136 137 137 137 138 141 140
294 292 297 299 296 294 293 291 290 290 291 289 287 287 283 279 276 275 275 267 252 251 247 232 223 189 160 154 149 145 140 139 138 136 139 140 141 140 141 142 142 140 141 147
299 293 294 294 295 296 297 297 294 292 289 290 292 287 280 274 270 269 266 267 256 253 245 225 197 162 155 152 147 142 140 142 142 141 137 137 138 138 140 141 141 139 135 138
311 305 297 293 292 292 291 292 293 291 289 287 284 280 276 272 267 265 255 240 233 238 246 191 170 163 154 150 146 141 141 139 136 134 134 139 137 138 139 140 139 140 139 137
308 303 299 295 293 291 291 292 291 288 287 284 279 274 273 269 264 259 247 241 239 229 192 165 156 155 151 147 149 143 142 143 141 139 139 140 139 138 138 138 139 138 137 137
306 303 300 296 294 291 288 289 288 287 287 283 276 272 270 268 262 248 225 237 241 189 175 174 172 165 158 152 146 143 143 143 143 143 142 139 137 136 137 138 138 137 137 136
305 303 302 296 294 293 290 287 284 285 286 284 280 276 272 273 268 260 256 239 199 170 166 163 157 155 153 149 142 139 140 141 141 139 138 137 138 139 140 139 138 137 137 137
303 302 301 298 295 295 295 290 284 284 285 284 282 277 270 268 259 216 233 232 166 154 149 154 150 148 147 139 132 132 135 137 136 135 134 134 136 137 138 137 137 137 137 137
305 304 301 298 297 296 296 299 297 290 285 283 284 282 273 272 319 337 99 141 144 137 128 133 136 138 135 127 125 127 129 129 128 127 127 128 130 131 133 134 133 133 134 134
304 302 301 303 302 297 294 300 306 307 307 310 321 322 306 282 160 101 103 109 112 108 105 112 116 121 120 116 120 121 122 125 127 128 127 128 129 130 130 131 131 132 132 132
303 303 301 299 300 303 305 304 305 315 326 344 5 22 48 73 92 100 98 93 95 97 93 94 99 102 102 107 111 114 116 119 119 119 124 125 126 126 126 127 127 128 128 128
305 306 307 310 313 316 314 312 316 327 343 28 49 44 61 80 92 95 96 95 92 87 84 84 86 91 96 100 102 104 105 107 110 114 118 119 121 122 123 123 123 123 125 128